Location: Cheching
(60.0667°N, 164.2167°W)
Time: 14:11:48
(UTC+00:00)

STRAND 1 - Pass Details

Date: 23 January 2021
Orbit: 768 x 780 km, 98.4° (Epoch: 04 March)

Event Time Altitude Azimuth Distance (km) Brightness Sun altitude
Rises 17:56:42 0° 188° (S) 3,237 ? -10.9°
Reaches altitude 10° 17:59:10 10° 197° (SSW) 2,316 ? -10.6°
Maximum altitude 18:03:53 37° 265° (W) 1,196 ? -10.0°
Drops below altitude 10° 18:08:40 10° 332° (NNW) 2,338 ? -9.5°
Sets 18:11:10 0° 341° (NNW) 3,272 ? -9.2°
